Starlink 30198

operational
NORAD ID: 57290 Int'l Des: 2023-096 Owner: SPXS Country: US Constellation: starlink
LEOCIRCULAR

关于 Starlink 30198

正在加载描述...

实时位置

正在加载3D地球...

即将过境

高度历史

Altitude vs Time

uPlot chart will show altitude changes over time

两行轨道根数

1 57290U 23096A 25308.38357512 -.00017667 00000-0 -12931-2 0 9992
2 57290 43.0009 184.4282 0001378 259.6078 100.4609 15.02619703128764
Epoch: Nov 4, 2025 • Age: 14 hours

当前状态

高度 571.3 km
速度 7.58 km/s
星下点 -43.16°S, 59.19°E
发射日期 Jul 10, 2023
运行时间 2.3 years
类型 internet

技术详情

分类 Payload
质量 730.00 kg
干质量 700.00 kg
总质量 730.00 kg
长度 0.30 m
直径 4.10 m
跨度 29.00 m
形状 Box + pan
制造商 SPXS
平台类型 Starlink V2M
阶段状态 In Orbit
所有者/国家 SPXS/US

大型星座

Loading constellations...